Location: Unspecified
(0.0000°N, 0.0000°E)
Time: 17:43:59
(UTC+00:00)

SRMSAT - Pass Details

Date: 17 July 2019
Orbit: 848 x 865 km, 20.0° (Epoch: 07 December)

Event Time Altitude Azimuth Distance (km) Brightness Sun altitude
Exits shadow 03:53:58 14° 339° (NNW) 2,195 ? -30.5°
Maximum altitude 03:57:03 20° 16° (NNE) 1,850 ? -29.8°
Drops below altitude 10° 04:01:15 10° 62° (ENE) 2,455 ? -28.9°
Sets 04:04:30 0° 78° (ENE) 3,392 ? -28.2°
